Date String (YYYY-MM-DD hh:mm:ss) UTC,Instrument flags,absolute air pressure of the measurement (hPa),sample flow rate (lpm),inlet stack bypass flow (lpm),air temperature of the measurement (°C),ambient temperature measured by the external sensor (°C),aerosol sample conditioner tube jacket temperature (°C),OPC LED temperature (°C),internal box temperature (°C),relative humidity of the measurement (%),span deviation,mass concentration of particles derived from Lorenz-Mie calculation of OPC scattering (μg/m³),mass concentration of particles derived from Lorenz-Mie calculation of OPC scattering (μg/m³),mass concentration of particles derived from Lorenz-Mie calculation of OPC scattering (μg/m³)
DateTimeUTC,F1_M11,P_M11,Q1_M11,Q2_M11,T1_M11,T2_M11,T3_M11,T4_M11,T5_M11,U1_M11,ZSPAN_M11,X2_M11,X0_M11,X1_M11
2023-12-13 01:00:00,SystemResetWarning,0835.5,5.01,000.00,019.7,018.8,000.0,028.0,020.9,21.0,0000.0,0007.98,0012.99,0007.45
2023-12-13 01:01:00,SystemResetWarning,0835.5,5.00,000.00,019.7,018.8,000.0,028.0,020.9,21.0,0000.0,0007.96,0013.27,0007.44
2023-12-13 01:02:00,SystemResetWarning,0835.5,5.00,000.00,019.7,018.8,000.0,028.0,020.9,21.0,0000.0,0007.97,0013.32,0007.45
2023-12-13 01:03:00,SystemResetWarning,0835.5,5.00,000.00,019.7,018.8,000.0,028.0,020.9,21.0,0000.0,0008.00,0013.42,0007.47
2023-12-13 01:04:00,SystemResetWarning,0835.6,4.99,000.00,019.7,018.8,000.0,028.0,020.9,21.0,0000.1,0008.08,0013.60,0007.48
2023-12-13 01:05:00,SystemResetWarning,0835.5,5.00,000.00,019.7,018.8,000.0,028.0,020.9,21.0,0000.2,0008.13,0013.69,0007.51
2023-12-13 01:06:00,SystemResetWarning,0835.6,5.00,000.00,019.7,018.8,000.0,028.0,020.9,21.1,0000.1,0008.15,0014.06,0007.51
2023-12-13 01:07:00,SystemResetWarning,0835.6,5.00,000.00,019.7,018.8,000.0,028.0,020.9,21.1,0000.0,0008.17,0014.71,0007.52
2023-12-13 01:08:00,SystemResetWarning,0835.5,5.00,000.00,019.7,018.8,000.0,028.0,020.9,21.1,-000.2,0008.21,0015.09,0007.55
2023-12-13 01:09:00,SystemResetWarning,0835.6,5.00,000.00,019.7,018.8,000.0,028.0,020.9,21.1,-001.3,0008.22,0014.76,0007.55
2023-12-13 01:10:00,SystemResetWarning,0835.5,5.00,000.00,019.7,018.8,000.0,028.0,020.9,21.1,-000.4,0008.21,0013.89,0007.56
2023-12-13 01:11:00,SystemResetWarning,0835.6,5.00,000.00,019.7,018.8,000.0,028.0,020.9,21.1,0000.7,0008.19,0013.65,0007.55
2023-12-13 01:12:00,SystemResetWarning,0835.6,5.00,000.00,019.7,018.8,000.0,028.0,020.9,21.1,0001.0,0008.20,0013.04,0007.58
2023-12-13 01:13:00,SystemResetWarning,0835.6,5.00,000.00,019.7,018.8,000.0,028.0,020.9,21.1,0001.1,0008.24,0013.47,0007.59
2023-12-13 01:14:00,SystemResetWarning,0835.6,5.00,000.00,019.7,018.8,000.0,028.0,020.9,21.1,0001.7,0008.24,0013.80,0007.60
2023-12-13 01:15:00,SystemResetWarning,0835.6,5.00,000.00,019.7,018.8,000.0,028.0,020.9,21.1,0002.7,0008.21,0014.38,0007.62
2023-12-13 01:16:00,SystemResetWarning,0835.6,5.00,000.00,019.7,018.8,000.0,028.0,020.9,21.1,0002.8,0008.23,0014.43,0007.63
2023-12-13 01:17:00,SystemResetWarning,0835.7,5.00,000.00,019.7,018.8,000.0,028.0,020.9,21.1,0003.2,0008.26,0014.39,0007.66
2023-12-13 01:18:00,SystemResetWarning,0835.6,5.00,000.00,019.7,018.8,000.0,028.0,020.9,21.1,0002.2,0008.29,0014.05,0007.68
2023-12-13 01:19:00,SystemResetWarning,0835.6,5.00,000.00,019.7,018.8,000.0,028.0,020.9,21.1,0001.0,0008.34,0013.71,0007.69
2023-12-13 01:20:00,SystemResetWarning,0835.6,5.00,000.00,019.7,018.8,000.0,028.0,020.9,21.1,0000.7,0008.37,0013.76,0007.71
2023-12-13 01:21:00,SystemResetWarning,0835.6,5.00,000.00,019.7,018.8,000.0,028.0,020.9,21.1,0001.6,0008.39,0013.64,0007.73
2023-12-13 01:22:00,SystemResetWarning,0835.7,5.00,000.00,019.7,018.8,000.0,028.0,020.9,21.1,0001.1,0008.44,0013.67,0007.76
2023-12-13 01:23:00,SystemResetWarning,0835.6,5.00,000.00,019.7,018.8,000.0,028.0,020.9,21.1,0001.4,0008.48,0013.74,0007.78
2023-12-13 01:24:00,SystemResetWarning,0835.7,4.99,000.00,019.7,018.8,000.0,028.0,020.9,21.1,0001.5,0008.49,0013.32,0007.79
2023-12-13 01:25:00,SystemResetWarning,0835.7,5.00,000.00,019.7,018.8,000.0,028.0,020.9,21.1,0000.8,0008.49,0013.24,0007.79
2023-12-13 01:26:00,SystemResetWarning,0835.8,5.00,000.00,019.7,018.8,000.0,028.0,020.9,21.1,0000.1,0008.52,0013.14,0007.78
2023-12-13 01:27:00,SystemResetWarning,0835.8,5.00,000.00,019.7,018.8,000.0,028.0,020.9,21.1,0000.0,0008.49,0013.11,0007.78
2023-12-13 01:28:00,SystemResetWarning,0835.8,5.00,000.00,019.7,018.8,000.0,028.0,020.9,21.1,0000.0,0008.45,0013.25,0007.75
2023-12-13 01:29:00,SystemResetWarning,0835.8,5.01,000.00,019.7,018.8,000.0,028.0,020.9,21.1,0000.0,0008.46,0013.43,0007.76
2023-12-13 01:30:00,SystemResetWarning,0835.8,5.01,000.00,019.7,018.8,000.0,028.0,020.9,21.1,0000.0,0008.45,0013.59,0007.75
2023-12-13 01:31:00,SystemResetWarning,0835.8,5.00,000.00,019.7,018.8,000.0,028.0,020.9,21.1,0000.0,0008.42,0013.70,0007.73
2023-12-13 01:32:00,SystemResetWarning,0835.8,5.00,000.00,019.7,018.8,000.0,028.0,020.9,21.1,0000.0,0008.41,0014.32,0007.72
2023-12-13 01:33:00,SystemResetWarning,0835.8,5.00,000.00,019.7,018.8,000.0,028.0,020.9,21.1,0000.0,0008.39,0014.25,0007.70
2023-12-13 01:34:00,SystemResetWarning,0835.8,5.01,000.00,019.7,018.8,000.0,028.0,020.9,21.0,0000.0,0008.43,0014.30,0007.70
2023-12-13 01:35:00,SystemResetWarning,0835.8,5.00,000.00,019.7,018.8,000.0,028.0,020.9,21.1,0000.0,0008.40,0014.56,0007.69
2023-12-13 01:36:00,SystemResetWarning,0835.8,5.00,000.00,019.7,018.8,000.0,028.0,020.9,21.1,0000.0,0008.40,0014.58,0007.71
2023-12-13 01:37:00,SystemResetWarning,0835.8,5.00,000.00,019.7,018.8,000.0,028.0,020.9,21.1,0000.0,0008.41,0014.02,0007.72
2023-12-13 01:38:00,SystemResetWarning,0835.8,5.00,000.00,019.7,018.8,000.0,028.0,020.9,21.1,0000.0,0008.45,0014.74,0007.73
2023-12-13 01:39:00,SystemResetWarning,0835.8,5.00,000.00,019.7,018.8,000.0,028.0,020.9,21.1,0000.0,0008.48,0014.39,0007.75
2023-12-13 01:40:00,SystemResetWarning,0835.8,4.99,000.00,019.7,018.8,000.0,028.0,020.9,21.1,0000.0,0008.47,0014.20,0007.76
2023-12-13 01:41:00,SystemResetWarning,0835.8,5.00,000.00,019.7,018.8,000.0,028.0,020.9,21.1,0000.0,0008.49,0014.45,0007.76
2023-12-13 01:42:00,SystemResetWarning,0835.8,5.00,000.00,019.7,018.8,000.0,028.0,020.9,21.1,0000.0,0008.55,0014.42,0007.79
2023-12-13 01:43:00,SystemResetWarning,0835.8,5.00,000.00,019.7,018.8,000.0,028.0,020.9,21.1,0000.0,0008.59,0013.96,0007.82
2023-12-13 01:44:00,SystemResetWarning,0835.8,4.99,000.00,019.7,018.8,000.0,028.0,020.9,21.1,0000.0,0008.61,0014.08,0007.84
2023-12-13 01:45:00,SystemResetWarning,0835.8,5.00,000.00,019.7,018.8,000.0,028.0,020.9,21.1,0000.0,0008.56,0014.15,0007.84
2023-12-13 01:46:00,SystemResetWarning,0835.8,5.00,000.00,019.7,018.8,000.0,028.0,020.9,21.1,0000.0,0008.58,0013.95,0007.85
2023-12-13 01:47:00,SystemResetWarning,0835.9,5.00,000.00,019.7,018.8,000.0,028.0,020.9,21.1,0000.0,0008.62,0013.73,0007.86
2023-12-13 01:48:00,SystemResetWarning,0835.8,5.00,000.00,019.7,018.8,000.0,028.0,020.9,21.1,0000.0,0008.60,0013.73,0007.86
2023-12-13 01:49:00,SystemResetWarning,0835.8,5.01,000.00,019.7,018.8,000.0,028.0,020.9,21.1,0000.0,0008.60,0013.17,0007.86
2023-12-13 01:50:00,SystemResetWarning,0835.8,5.00,000.00,019.7,018.8,000.0,028.0,020.9,21.1,0000.0,0008.56,0013.06,0007.85
2023-12-13 01:51:00,SystemResetWarning,0835.8,5.00,000.00,019.7,018.8,000.0,028.0,020.9,21.1,0000.0,0008.55,0012.96,0007.84
2023-12-13 01:52:00,SystemResetWarning,0835.9,5.00,000.00,019.7,018.8,000.0,028.0,020.9,21.1,0000.0,0008.49,0012.35,0007.84
2023-12-13 01:53:00,SystemResetWarning,0835.9,5.00,000.00,019.7,018.8,000.0,028.0,020.9,21.1,0000.0,0008.42,0012.13,0007.82
2023-12-13 01:54:00,SystemResetWarning,0835.9,5.00,000.00,019.7,018.8,000.0,028.0,020.9,21.1,0000.0,0008.35,0012.00,0007.78
2023-12-13 01:55:00,SystemResetWarning,0835.9,5.00,000.00,019.7,018.8,000.0,028.0,020.9,21.1,0000.0,0008.31,0011.83,0007.75
2023-12-13 01:56:00,SystemResetWarning,0835.9,4.99,000.00,019.7,018.8,000.0,028.0,020.9,21.1,0000.0,0008.26,0011.54,0007.74
2023-12-13 01:57:00,SystemResetWarning,0835.9,5.00,000.00,019.7,018.8,000.0,028.0,020.9,21.2,0000.0,0008.25,0011.44,0007.74
2023-12-13 01:58:00,SystemResetWarning,0835.9,5.00,000.00,019.7,018.8,000.0,028.0,020.9,21.2,0000.0,0008.24,0011.58,0007.75
2023-12-13 01:59:00,SystemResetWarning,0836.0,5.00,000.00,019.7,018.8,000.0,028.0,020.9,21.2,0000.0,0008.26,0011.77,0007.77
